GW4034 Weather Reports


time (UTC)temp
C
wind
direction
speed
KPH
gust
KPH
rain 1hr
cm
rain 24hr
cm
rain mn
cm
humidity
%
barometer
mb
20260506102629 12 177 0.0 0.0 0.00 0.00 0.00 93 1014.5
20260506102126 12 195 1.6 3.2 0.00 0.00 0.00 93 1014.6
20260506101623 11 191 0.0 0.0 0.00 0.00 0.00 93 1014.5
20260506101120 11 191 0.0 0.0 0.00 0.00 0.00 93 1014.4
20260506100619 11 161 0.0 0.0 0.00 0.00 0.00 93 1014.5
20260506100116 11 161 0.0 0.0 0.00 0.00 0.00 92 1014.3
20260506095615 11 161 0.0 0.0 0.00 0.00 0.00 92 1014.2
20260506095111 11 161 0.0 0.0 0.00 0.00 0.00 92 1014.3
20260506094608 11 161 0.0 0.0 0.00 0.00 0.00 92 1014.1
20260506094106 11 161 0.0 0.0 0.00 0.00 0.00 92 1014.3
20260506093604 11 161 0.0 0.0 0.00 0.00 0.00 92 1014.3
20260506093101 11 161 0.0 0.0 0.00 0.00 0.00 92 1014.1
20260506092559 11 161 0.0 0.0 0.00 0.00 0.00 91 1014.4
20260506092055 11 161 0.0 0.0 0.00 0.00 0.00 91 1014.4
20260506091554 11 161 0.0 0.0 0.00 0.00 0.00 91 1014.3
20260506091051 11 161 0.0 0.0 0.00 0.00 0.00 91 1014.4
20260506090549 11 161 0.0 0.0 0.00 0.00 0.00 91 1014.3
20260506090045 11 161 0.0 0.0 0.00 0.00 0.00 91 1014.5
20260506085542 11 161 0.0 0.0 0.00 0.00 0.00 91 1014.7
20260506085038 12 161 0.0 0.0 0.00 0.00 0.00 90 1014.6
20260506084535 12 161 0.0 0.0 0.00 0.00 0.00 90 1014.6
20260506084031 12 161 0.0 0.0 0.00 0.00 0.00 90 1014.5
20260506083529 12 161 0.0 0.0 0.00 0.00 0.00 90 1014.5
20260506083026 12 159 0.0 0.0 0.00 0.00 0.00 90 1014.4
20260506082523 12 159 0.0 0.0 0.00 0.00 0.00 90 1014.6
20260506082018 12 159 0.0 0.0 0.00 0.00 0.00 90 1014.8
20260506081517 12 159 0.0 0.0 0.00 0.00 0.00 89 1014.5
20260506081014 12 159 0.0 0.0 0.00 0.00 0.00 89 1014.7
20260506080511 12 159 0.0 0.0 0.00 0.00 0.00 89 1014.8
20260506073455 13 154 1.6 1.6 0.00 0.00 0.00 87 1014.9
20260506072952 13 154 1.6 1.6 0.00 0.00 0.00 87 1014.9
20260506072449 13 162 0.0 0.0 0.00 0.00 0.00 87 1014.8
20260506071947 13 161 1.6 1.6 0.00 0.00 0.00 87 1015.0
20260506071444 13 162 0.0 0.0 0.00 0.00 0.00 87 1015.0
20260506070941 13 147 1.6 1.6 0.00 0.00 0.00 87 1015.0
20260506070438 13 144 1.6 1.6 0.00 0.00 0.00 86 1015.0
20260506062416 13 170 0.0 0.0 0.00 0.00 0.00 85 1014.9
20260506061911 13 178 0.0 0.0 0.00 0.00 0.00 85 1015.0
20260506061408 13 173 0.0 0.0 0.00 0.00 0.00 84 1014.9
20260506060906 13 176 0.0 0.0 0.00 0.00 0.00 84 1014.9
20260506060404 13 192 1.6 1.6 0.00 0.00 0.00 84 1014.9
20260506051336 15 165 0.0 0.0 0.00 0.00 0.00 81 1015.3
20260506050833 15 162 0.0 0.0 0.00 0.00 0.00 81 1015.3
20260506050331 15 228 0.0 1.6 0.00 0.00 0.00 80 1015.3
20260506044821 15 165 0.0 0.0 0.00 0.00 0.00 80 1015.5
20260506044319 15 167 0.0 0.0 0.00 0.00 0.00 79 1015.4
20260506043816 15 160 1.6 1.6 0.00 0.00 0.00 79 1015.5
20260506043313 15 169 1.6 1.6 0.00 0.00 0.00 79 1015.3
20260506042812 15 171 0.0 0.0 0.00 0.00 0.00 78 1015.2
20260506042310 15 175 0.0 0.0 0.00 0.00 0.00 78 1015.4
20260506041809 15 198 1.6 1.6 0.00 0.00 0.00 77 1015.1
20260506041305 16 164 0.0 0.0 0.00 0.00 0.00 77 1015.4
20260506040802 16 172 0.0 0.0 0.00 0.00 0.00 76 1015.0
20260506040259 16 158 0.0 0.0 0.00 0.00 0.00 76 1015.2
20260506035756 16 167 0.0 0.0 0.00 0.00 0.00 75 1015.2
20260506035253 16 160 0.0 0.0 0.00 0.00 0.00 75 1015.3
20260506034750 16 177 0.0 0.0 0.00 0.00 0.00 74 1015.5
20260506034247 16 172 0.0 0.0 0.00 0.00 0.00 74 1015.3
20260506033744 16 168 0.0 0.0 0.00 0.00 0.00 73 1015.3
20260506033241 16 178 1.6 1.6 0.00 0.00 0.00 73 1015.3
20260506032738 16 138 1.6 1.6 0.00 0.00 0.00 72 1015.3
20260506032235 16 180 0.0 1.6 0.00 0.00 0.00 72 1015.2
20260506031732 17 167 0.0 0.0 0.00 0.00 0.00 72 1015.0
20260506031229 17 147 0.0 0.0 0.00 0.00 0.00 71 1015.1
20260506030727 17 175 1.6 3.2 0.00 0.00 0.00 72 1014.9
20260506030225 17 189 0.0 0.0 0.00 0.00 0.00 71 1015.2
20260506025721 17 157 0.0 1.6 0.00 0.00 0.00 71 1015.0
20260506025218 17 163 0.0 1.6 0.00 0.00 0.00 71 1015.0
20260506024715 17 178 0.0 1.6 0.00 0.00 0.00 70 1015.0
20260506024211 17 227 6.4 9.7 0.00 0.00 0.00 70 1015.2
20260506023707 17 203 0.0 0.0 0.00 0.00 0.00 69 1015.1
20260506023204 17 174 0.0 0.0 0.00 0.00 0.00 69 1015.3
20260506022656 17 180 3.2 6.4 0.00 0.00 0.00 69 1015.3
20260506022154 17 217 1.6 3.2 0.00 0.00 0.00 69 1015.2
20260506021652 17 175 1.6 1.6 0.00 0.00 0.00 69 1014.9
20260506021148 17 166 6.4 12.9 0.00 0.00 0.00 69 1014.9
20260506020645 18 172 1.6 3.2 0.00 0.00 0.00 68 1014.9
20260506020143 18 214 3.2 4.8 0.00 0.00 0.00 68 1014.8
20260506015640 18 186 1.6 1.6 0.00 0.00 0.00 68 1014.8
20260506015137 18 208 0.0 1.6 0.00 0.00 0.00 68 1014.9
20260506014635 18 183 1.6 1.6 0.00 0.00 0.00 68 1014.8
20260506014130 18 186 1.6 3.2 0.00 0.00 0.00 68 1014.8
20260506013628 18 182 0.0 0.0 0.00 0.00 0.00 68 1014.8
20260506013124 18 145 1.6 1.6 0.00 0.00 0.00 67 1014.8
20260506012621 18 151 0.0 1.6 0.00 0.00 0.00 68 1014.6
20260506012112 18 163 0.0 0.0 0.00 0.00 0.00 68 1014.6
20260506011610 18 187 6.4 6.4 0.00 0.00 0.00 67 1014.4
20260506011106 18 172 0.0 0.0 0.00 0.00 0.00 67 1014.4
20260506010605 18 195 3.2 3.2 0.00 0.00 0.00 67 1014.5
20260506005559 18 161 1.6 3.2 0.00 0.00 0.00 68 1014.3
20260506005054 18 173 1.6 3.2 0.00 0.00 0.00 67 1014.1
20260506004552 18 191 3.2 3.2 0.00 0.00 0.00 67 1014.1
20260506004048 18 344 8.0 9.7 0.00 0.00 0.00 67 1014.0
20260506003545 18 241 3.2 4.8 0.00 0.00 0.00 66 1014.0
20260506003041 18 179 0.0 0.0 0.00 0.00 0.00 67 1013.9
20260506002537 18 168 0.0 1.6 0.00 0.00 0.00 66 1013.9
20260506002033 18 196 3.2 4.8 0.00 0.00 0.00 66 1013.9
20260506001530 18 170 1.6 1.6 0.00 0.00 0.00 66 1014.0
20260506001027 18 158 1.6 3.2 0.00 0.00 0.00 66 1013.8
20260506000525 18 176 3.2 3.2 0.00 0.00 0.00 67 1013.8
20260506000022 18 194 0.0 0.0 0.00 0.00 0.00 67 1013.8
20260505235520 18 176 1.6 1.6 0.00 0.00 0.00 66 1013.8
20260505235016 18 157 3.2 4.8 0.00 0.00 0.00 66 1013.6
20260505234513 18 159 1.6 1.6 0.00 0.00 0.00 66 1013.5
20260505234010 19 157 1.6 1.6 0.00 0.00 0.00 66 1013.3
20260505233508 19 212 1.6 1.6 0.00 0.00 0.00 65 1013.4
20260505233005 19 188 3.2 3.2 0.00 0.00 0.00 65 1013.2
20260505232503 20 161 1.6 3.2 0.00 0.00 0.00 65 1013.3
20260505232000 20 173 1.6 1.6 0.00 0.00 0.00 65 1013.1
20260505231457 20 173 1.6 3.2 0.00 0.00 0.00 64 1013.0
20260505230955 20 211 1.6 1.6 0.00 0.00 0.00 63 1013.1
20260505230452 20 220 3.2 3.2 0.00 0.00 0.00 62 1013.0
20260505225948 20 215 6.4 6.4 0.00 0.00 0.00 62 1013.1
20260505225446 20 156 3.2 3.2 0.00 0.00 0.00 62 1012.8
20260505224942 21 209 1.6 1.6 0.00 0.00 0.00 61 1012.8
20260505224439 21 181 0.0 0.0 0.00 0.00 0.00 61 1012.5
20260505223936 21 182 0.0 0.0 0.00 0.00 0.00 62 1012.6
20260505223433 21 157 6.4 9.7 0.00 0.00 0.00 61 1012.7
20260505222929 21 168 0.0 0.0 0.00 0.00 0.00 61 1012.5
20260505222425 21 235 1.6 4.8 0.00 0.00 0.00 62 1012.6
20260505221921 21 193 3.2 6.4 0.00 0.00 0.00 60 1012.8
20260505221419 21 224 0.0 1.6 0.00 0.00 0.00 61 1012.8
20260505220916 21 182 3.2 3.2 0.00 0.00 0.00 61 1012.6
20260505220413 21 138 8.0 12.9 0.00 0.00 0.00 59 1012.6
20260505215910 21 159 1.6 1.6 0.00 0.00 0.00 59 1012.3
20260505215408 21 177 1.6 3.2 0.00 0.00 0.00 58 1012.5
20260505214906 22 182 1.6 3.2 0.00 0.00 0.00 57 1012.5
20260505214403 22 184 1.6 3.2 0.00 0.00 0.00 57 1012.5
20260505213900 22 205 3.2 4.8 0.00 0.00 0.00 56 1012.5
20260505213358 22 160 4.8 6.4 0.00 0.00 0.00 55 1012.3
20260505212854 23 202 3.2 4.8 0.00 0.00 0.00 55 1012.3
20260505212351 23 195 4.8 9.7 0.00 0.00 0.00 55 1012.4
20260505211847 23 158 1.6 3.2 0.00 0.00 0.00 55 1012.2
20260505211345 23 199 1.6 3.2 0.00 0.00 0.00 56 1012.2
20260505210841 23 261 3.2 3.2 0.00 0.00 0.00 55 1012.5
20260505210338 23 167 1.6 3.2 0.00 0.00 0.00 54 1012.2
20260505205835 23 178 3.2 4.8 0.00 0.00 0.00 56 1012.3
20260505205334 23 184 3.2 4.8 0.00 0.00 0.00 56 1012.3
20260505204830 23 151 3.2 4.8 0.00 0.00 0.00 54 1012.3
20260505204328 23 196 3.2 3.2 0.00 0.00 0.00 56 1012.1
20260505203825 23 165 0.0 1.6 0.00 0.00 0.00 56 1012.4
20260505203321 23 200 4.8 4.8 0.00 0.00 0.00 55 1012.6
20260505202818 23 151 3.2 4.8 0.00 0.00 0.00 56 1012.7
20260505202314 23 133 0.0 1.6 0.00 0.00 0.00 56 1012.5
20260505201811 24 120 3.2 9.7 0.00 0.00 0.00 56 1012.6
20260505201308 24 154 1.6 1.6 0.00 0.00 0.00 55 1012.8
20260505200807 24 207 1.6 1.6 0.00 0.00 0.00 55 1012.7
20260505200303 24 160 3.2 4.8 0.00 0.00 0.00 55 1012.8
20260505195758 24 153 4.8 6.4 0.00 0.00 0.00 55 1012.9
20260505195256 24 158 3.2 3.2 0.00 0.00 0.00 58 1012.9
20260505194753 24 207 3.2 3.2 0.00 0.00 0.00 56 1012.9
20260505194250 23 207 4.8 11.3 0.00 0.00 0.00 56 1013.1
20260505193745 23 181 4.8 6.4 0.00 0.00 0.00 57 1013.2
20260505193243 23 182 3.2 4.8 0.00 0.00 0.00 56 1013.4
20260505192741 23 193 4.8 6.4 0.00 0.00 0.00 55 1013.2
20260505192239 23 210 1.6 3.2 0.00 0.00 0.00 57 1013.3
20260505191737 23 188 3.2 3.2 0.00 0.00 0.00 58 1013.3
20260505191235 24 126 1.6 3.2 0.00 0.00 0.00 56 1013.5
20260505190731 23 160 1.6 3.2 0.00 0.00 0.00 57 1013.5
20260505190231 24 207 3.2 4.8 0.00 0.00 0.00 55 1013.7
20260505185727 25 162 1.6 1.6 0.00 0.00 0.00 56 1014.0
20260505185224 25 159 3.2 4.8 0.00 0.00 0.00 56 1013.8
20260505184720 24 193 1.6 1.6 0.00 0.00 0.00 56 1013.6
20260505184218 25 195 6.4 6.4 0.00 0.00 0.00 53 1013.9
20260505183714 25 267 3.2 6.4 0.00 0.00 0.00 55 1013.9
20260505183212 24 202 1.6 4.8 0.00 0.00 0.00 57 1013.9
20260505182708 24 185 3.2 6.4 0.00 0.00 0.00 56 1013.9
20260505182205 25 179 3.2 3.2 0.00 0.00 0.00 54 1014.0
20260505181701 25 193 1.6 3.2 0.00 0.00 0.00 53 1014.0
20260505181159 25 180 1.6 3.2 0.00 0.00 0.00 53 1013.8
20260505180655 25 197 0.0 0.0 0.00 0.00 0.00 55 1013.8
20260505180152 25 211 0.0 1.6 0.00 0.00 0.00 53 1013.7
20260505175648 25 121 3.2 9.7 0.00 0.00 0.00 52 1014.0
20260505175145 25 134 6.4 9.7 0.00 0.00 0.00 53 1013.7
20260505174642 25 176 1.6 3.2 0.00 0.00 0.00 52 1013.9
20260505174137 25 196 3.2 4.8 0.00 0.00 0.00 52 1014.0
20260505173634 25 175 0.0 1.6 0.00 0.00 0.00 52 1013.9
20260505173131 25 177 1.6 1.6 0.00 0.00 0.00 51 1014.0
20260505172629 25 187 6.4 11.3 0.00 0.00 0.00 48 1014.0
20260505172125 25 193 0.0 1.6 0.00 0.00 0.00 49 1014.0
20260505171620 26 216 0.0 1.6 0.00 0.00 0.00 51 1014.1
20260505171118 25 52 6.4 6.4 0.00 0.00 0.00 50 1014.2
20260505170615 25 189 3.2 4.8 0.00 0.00 0.00 48 1014.0
20260505170111 25 153 3.2 3.2 0.00 0.00 0.00 51 1014.4
20260505165606 24 207 3.2 4.8 0.00 0.00 0.00 50 1014.4
20260505165102 25 205 4.8 6.4 0.00 0.00 0.00 51 1014.5
20260505164558 24 173 1.6 3.2 0.00 0.00 0.00 52 1014.6
20260505164056 24 148 4.8 6.4 0.00 0.00 0.00 52 1014.7
20260505163554 25 149 6.4 9.7 0.00 0.00 0.00 53 1014.6
20260505163051 24 211 0.0 1.6 0.00 0.00 0.00 57 1014.7
20260505162544 24 166 4.8 6.4 0.00 0.00 0.00 55 1014.7
20260505162041 24 241 4.8 12.9 0.00 0.00 0.00 53 1014.9
20260505161538 23 171 3.2 4.8 0.00 0.00 0.00 53 1014.7
20260505161035 23 157 1.6 1.6 0.00 0.00 0.00 55 1014.8
20260505160533 23 192 1.6 3.2 0.00 0.00 0.00 56 1014.7
20260505153009 23 168 3.2 3.2 0.00 0.00 0.00 55 1015.3
20260505152506 23 170 3.2 3.2 0.00 0.00 0.00 56 1015.2
20260505152002 23 204 1.6 1.6 0.00 0.00 0.00 55 1015.2
20260505151457 23 155 3.2 4.8 0.00 0.00 0.00 53 1015.3
20260505150954 23 185 6.4 6.4 0.00 0.00 0.00 54 1015.4
20260505150446 24 167 3.2 3.2 0.00 0.00 0.00 53 1015.4
20260505140415 22 173 3.2 3.2 0.00 0.00 0.00 58 1015.6
20260505124829 17 193 4.8 6.4 0.00 0.00 0.00 71 1015.4
20260505124326 17 162 0.0 0.0 0.00 0.00 0.00 71 1015.5
20260505123822 17 170 0.0 0.0 0.00 0.00 0.00 72 1015.5
20260505123319 17 166 0.0 0.0 0.00 0.00 0.00 73 1015.6
20260505122815 16 187 1.6 1.6 0.00 0.00 0.00 73 1015.7
20260505122313 17 176 3.2 4.8 0.00 0.00 0.00 72 1015.6
20260505121809 16 159 0.0 0.0 0.00 0.00 0.00 74 1015.8
20260505121306 16 177 1.6 1.6 0.00 0.00 0.00 76 1015.6
20260505120802 15 174 0.0 0.0 0.00 0.00 0.00 79 1015.5
20260505120258 15 202 1.6 1.6 0.00 0.00 0.00 80 1015.6
20260505115757 15 175 0.0 0.0 0.00 0.00 0.00 80 1015.5
20260505115255 15 148 3.2 3.2 0.00 0.00 0.00 79 1015.6
20260505114752 14 178 0.0 0.0 0.00 0.00 0.00 81 1015.7
20260505114248 14 150 0.0 1.6 0.00 0.00 0.00 81 1015.4
20260505113745 14 193 0.0 0.0 0.00 0.00 0.00 80 1015.5
20260505113241 14 193 0.0 0.0 0.00 0.00 0.00 80 1015.3
20260505112737 14 192 0.0 0.0 0.00 0.00 0.00 81 1015.6
20260505112235 14 174 0.0 1.6 0.00 0.00 0.00 82 1015.7
20260505111735 13 194 0.0 0.0 0.00 0.00 0.00 87 1015.7
20260505111231 12 162 0.0 0.0 0.00 0.00 0.00 89 1015.6
20260505110727 12 169 0.0 0.0 0.00 0.00 0.00 91 1015.7
20260505110225 11 181 0.0 0.0 0.00 0.00 0.00 92 1015.7